DW0805 Ramloese DK current weather conditions

sailwx.info

Wind from 169

Air temperature 17.8° C
Dewpoint 15.9° C

Last reported at 2019-Jun-18 23:55 UTC.
Time now 2019-Jun-19 00:50 UTC

Location: N 56°01' E 012°05'.
View on Google Maps.

See reports from other nearby stations

  
Tides and Currents Weather Stations Pressure Air Temp Water Temp Dewpoint Dewpoint Depression Visibility Wind Speed Wind Dir Waves Ship Positions
date/time (UTC)wind fromknots sea level pressurealtimeterstation pressurevisibilityair tempwater tempwave heightnotes
2019-Jun-18 23:55 169 17.8
2019-Jun-18 23:25 169 18.3
2019-Jun-18 23:15 171 1 gusting 7 18.3
2019-Jun-18 23:05 182 2 gusting 7 18.9
2019-Jun-18 22:45 207 1 gusting 6 18.3
2019-Jun-18 22:35 205 1 gusting 8 18.3
2019-Jun-18 22:15 141 18.3
2019-Jun-18 22:05 141 18.3
2019-Jun-18 21:45 142 6 gusting 10 18.9
2019-Jun-18 21:25 160 4 gusting 6 18.9
2019-Jun-18 20:55 172 3 gusting 8 19.4
2019-Jun-18 20:35 206 8 gusting 13 20.0
2019-Jun-18 20:25 183 6 gusting 8 20.0
2019-Jun-18 20:05 142 5 gusting 8 18.9
2019-Jun-18 19:55 134 4 gusting 7 18.9
2019-Jun-18 19:45 139 4 gusting 8 18.9
2019-Jun-18 17:36 183 2 gusting 6 23.3
2019-Jun-18 17:25 280 2 gusting 6 23.3
2019-Jun-18 16:55 198 4 gusting 7 23.3
2019-Jun-18 16:45 183 4 gusting 8 23.9
2019-Jun-18 16:35 180 4 gusting 10 23.9
2019-Jun-18 16:25 173 6 gusting 8 23.3
2019-Jun-18 16:15 180 6 gusting 10 23.3
2019-Jun-18 15:55 178 6 gusting 11 23.3
2019-Jun-18 15:45 172 6 gusting 10 23.9
2019-Jun-18 15:35 175 6 gusting 10 24.4
2019-Jun-18 15:25 170 6 gusting 11 24.4
2019-Jun-18 15:15 173 6 gusting 11 24.4
2019-Jun-18 15:05 167 4 gusting 11 24.4
2019-Jun-18 14:55 179 6 gusting 10 24.4
2019-Jun-18 14:35 176 7 gusting 13 24.4
2019-Jun-18 14:05 177 6 gusting 10 24.4
2019-Jun-18 13:55 171 6 gusting 12 24.4
2019-Jun-18 13:45 189 7 gusting 11 24.4
2019-Jun-18 13:35 173 6 gusting 10 24.4
2019-Jun-18 13:15 172 6 gusting 12 24.4
2019-Jun-18 12:55 162 5 gusting 8 24.4
2019-Jun-18 12:45 180 6 gusting 10 24.4
2019-Jun-18 12:35 171 7 gusting 11 23.3
2019-Jun-18 12:15 175 6 gusting 11 23.3
2019-Jun-18 12:05 186 6 gusting 12 23.9
2019-Jun-18 11:45 172 7 gusting 12 23.9
2019-Jun-18 11:35 185 6 gusting 13 23.3
2019-Jun-18 11:25 175 6 gusting 12 23.3
2019-Jun-18 11:15 179 7 gusting 13 23.3
2019-Jun-18 11:05 178 8 gusting 13 23.3
2019-Jun-18 10:55 167 8 gusting 13 23.3
2019-Jun-18 10:45 177 10 gusting 13 23.3
2019-Jun-18 10:35 179 8 gusting 13 22.8
2019-Jun-18 10:25 179 7 gusting 14 22.8
2019-Jun-18 10:15 170 7 gusting 14 22.8
2019-Jun-18 10:05 186 9 gusting 14 22.2
2019-Jun-18 09:55 171 7 gusting 13 22.2
2019-Jun-18 09:45 183 11 gusting 14 23.3
2019-Jun-18 09:35 179 6 gusting 13 22.8
2019-Jun-18 09:25 172 7 gusting 13 22.8
2019-Jun-18 09:15 158 6 gusting 13 23.3
2019-Jun-18 09:05 178 6 gusting 12 23.3
2019-Jun-18 08:55 169 6 gusting 13 22.8
2019-Jun-18 08:45 169 10 gusting 14 22.2
2019-Jun-18 08:35 176 7 gusting 13 22.2
2019-Jun-18 08:25 173 7 gusting 13 22.2
2019-Jun-18 08:15 177 7 gusting 14 22.8
2019-Jun-18 08:05 175 5 gusting 8 22.2
2019-Jun-18 07:55 169 5 gusting 12 21.7
2019-Jun-18 07:45 176 5 gusting 12 21.7
2019-Jun-18 07:35 178 7 gusting 12 21.7
2019-Jun-18 07:25 178 7 gusting 13 21.7
2019-Jun-18 07:15 167 7 gusting 12 21.7
2019-Jun-18 07:05 177 6 gusting 11 21.1
2019-Jun-18 06:55 179 6 gusting 13 21.1
2019-Jun-18 06:45 176 8 gusting 13 21.1
2019-Jun-18 06:35 169 7 gusting 11 20.6
2019-Jun-18 06:25 168 6 gusting 10 20.0
2019-Jun-18 06:15 184 6 gusting 8 19.4
2019-Jun-18 06:05 164 5 gusting 11 19.4
2019-Jun-18 05:45 301 3 gusting 6 20.6
2019-Jun-18 05:25 157 4 gusting 11 19.4
2019-Jun-18 04:45 155 4 gusting 7 17.8
2019-Jun-18 04:35 166 2 gusting 6 17.8
2019-Jun-18 04:15 158 2 gusting 7 17.2
2019-Jun-18 04:05 161 2 gusting 6 17.2
2019-Jun-18 03:55 159 1 gusting 7 16.7
2019-Jun-18 03:45 151 4 gusting 8 16.7
2019-Jun-18 03:25 148 3 gusting 7 16.1
2019-Jun-18 03:15 148 3 gusting 6 16.1
2019-Jun-18 03:05 112 4 gusting 7 16.1
2019-Jun-18 02:55 152 2 gusting 7 16.1
2019-Jun-18 02:45 152 3 gusting 7 16.1
2019-Jun-18 02:35 159 4 gusting 6 16.1
2019-Jun-18 02:25 167 1 gusting 7 16.1
2019-Jun-18 02:15 157 2 gusting 6 16.1
2019-Jun-18 02:05 177 3 gusting 7 16.1
2019-Jun-18 01:55 168 1 gusting 7 16.1
2019-Jun-18 01:45 150 2 gusting 7 16.1
2019-Jun-18 01:35 217 2 gusting 6 16.1
2019-Jun-18 01:25 222 1 gusting 6 16.1
2019-Jun-18 01:05 295 1 gusting 2 15.6
2019-Jun-18 00:55 294 15.6
2019-Jun-18 00:35 294 15.6
2019-Jun-18 00:15 294 0 gusting 2 16.1
2019-Jun-17 23:55 294 0 gusting 2 15.6
2019-Jun-17 23:35 296 14.4
2019-Jun-17 23:25 296 14.4
2019-Jun-17 23:15 296 15.0
2019-Jun-17 23:05 296 15.0
2019-Jun-17 22:55 296 15.6
2019-Jun-17 22:45 296 1 gusting 2 15.6
2019-Jun-17 22:25 296 15.0
2019-Jun-17 22:15 296 15.0
2019-Jun-17 22:05 296 14.4
2019-Jun-17 21:55 296 15.0
2019-Jun-17 21:45 296 15.0
2019-Jun-17 21:35 296 15.0
2019-Jun-17 21:25 296 15.6
2019-Jun-17 21:05 296 15.6
2019-Jun-17 20:45 296 16.7
2019-Jun-17 20:35 296 16.7
2019-Jun-17 19:45 315 18.9
2019-Jun-17 19:35 297 19.4
2019-Jun-17 19:25 316 20.0
2019-Jun-17 19:15 297 20.6
2019-Jun-17 19:05 321 20.6
2019-Jun-17 18:55 302 0 gusting 2 21.7
2019-Jun-17 18:35 298 0 gusting 2 22.8
2019-Jun-17 18:25 299 1 gusting 4 22.8